Location: Eimen
(51.8766°N, 9.7806°E)
Time: 15:27:11
(UTC+00:00)

GP-B - Pass Details

Date: 23 May 2024
Orbit: 624 x 628 km, 89.8° (Epoch: 23 June)

Event Time Altitude Azimuth Distance (km) Brightness Sun altitude
Rises 00:26:56 0° 353° (N) 2,928 7.8 -15.9°
Reaches altitude 10° 00:29:23 10° 342° (NNW) 2,015 6.5 -15.8°
Maximum altitude 00:33:09 28° 283° (WNW) 1,174 4.4 -15.6°
Enters shadow 00:35:19 19° 240° (WSW) 1,496 4.6 -15.5°
